Tracking 28790 objects as of 19-Apr-2024
HD Live streaming from Space Station
objects crossing your sky now

STARLINK-1602

Track STARLINK-1602 now!
10-day predictions
STARLINK-1602 is classified as:


NORAD ID: 46121
Int'l Code: 2020-057E
Perigee: 553.5 km
Apogee: 555.3 km
Inclination: 53.1 °
Period: 95.6 minutes
Semi major axis: 6925 km
RCS: Unknown
Launch date: August 18, 2020
Source: United States (US)
Launch site: AIR FORCE EASTERN TEST RANGE (AFETR)
Your satellite tracking list
Your tracking list is empty




NASA's NSSDC Master Catalog

Two Line Element Set (TLE):
1 46121U 20057E   24109.42896586 -.00003438  00000-0 -21207-3 0  9997
2 46121  53.0534 155.3145 0001347  83.9916 276.1226 15.06386687202304
Source of the keplerian elements: AFSPC